Regional Weather Roundup
Issued by NWS

Home | Current Version | Previous Version | Text Only | Print | Product List | Glossary On
Versions: 1 2 3 4 5 6 7 8 9 10 11 12 13 14 15 16 17 18 19 20 21 22 23 24 25 26 27 28 29 30 31 32 33 34 35 36 37 38 39 40 41 42 43 44 45 46 47 48 49 50
000
ASUS45 KPSR 272010
RWRAZ

ARIZONA REGIONAL HOURLY WEATHER ROUNDUP
NATIONAL WEATHER SERVICE PHOENIX AZ
100 PM MST THU NOV 27 2014

NOTE: FAIR INDICATES FEW OR NO CLOUDS BELOW 12,000 FEET WITH NO
SIGNIFICANT WEATHER AND/OR OBSTRUCTIONS TO VISIBILITY.

AZZ001>003-036-272100-
NORTHWEST ARIZONA

CITY           SKY/WX    TMP DP  RH WIND       PRES   REMARKS
BULLHEAD CITY  SUNNY     73  21  14 N15       30.17F
KINGMAN        SUNNY     75  13   9 CALM      30.24F
$$

AZZ004>008-015-016-018-272100-
NORTH CENTRAL ARIZONA

CITY           SKY/WX    TMP DP  RH WIND       PRES   REMARKS
GRAND CANYON   SUNNY     65   2   8 S5        30.40F
PRESCOTT       SUNNY     68  12  11 NE7       30.32F
FLAGSTAFF      SUNNY     61  13  15 NE7       30.42F
PAYSON         SUNNY     68  18  14 S8        30.34F
PAGE           SUNNY     54  19  25 N3        30.37F
$$

AZZ009>014-017-272100-
NORTHEAST ARIZONA

CITY           SKY/WX    TMP DP  RH WIND       PRES   REMARKS
WINSLOW        SUNNY     58  18  21 CALM      30.39F
SAINT JOHNS    SUNNY     62  18  18 N6        30.36F
SHOW LOW       SUNNY     57  16  19 NE5       30.41F
$$

AZZ023-272100-
GREATER PHOENIX AREA

CITY           SKY/WX    TMP DP  RH WIND       PRES   REMARKS
PHOENIX        MOSUNNY   82  21  10 VRB3      30.11F
BUCKEYE          N/A     81  19  10 E14G20    30.12F
GLENDALE       SUNNY     75  28  17 E3        30.15F
LUKE AFB       SUNNY     74  26  16 CALM      30.12F HAZE
DEER VALLEY    SUNNY     80  17   9 SE5       30.13F
SCOTTSDALE     SUNNY     81  18   9 CALM      30.15F
MESA-FALCON    SUNNY     82  21  10 VRB6      30.12
MESA-GATEWAY   SUNNY     77  27  15 CALM      30.15F
CHANDLER       SUNNY     73  30  20 CALM      30.14F
$$

AZZ027-028-272100-
SOUTHWEST MARICOPA COUNTY AND PINAL COUNTY

CITY           SKY/WX    TMP DP  RH WIND       PRES   REMARKS
CASA GRANDE    SUNNY     81  25  12 E14       30.13F
$$

AZZ503-504-507>509-272100-
SOUTHEAST ARIZONA

CITY           SKY/WX    TMP DP  RH WIND       PRES   REMARKS
TUCSON         SUNNY     81  20  10 E16G23    30.17F
DAVIS-MONTHAN  SUNNY     80  20  10 E13       30.15F
RYAN FIELD       N/A     88  32  13 E13       30.16F
NOGALES        SUNNY     79  17  10 E10       30.20F
SIERRA VISTA   SUNNY     71  18  13 VRB3      30.28F
DOUGLAS        SUNNY     73  21  14 E13G20    30.27F
SAFFORD        SUNNY     70  19  14 VRB6      30.28F
$$

AZZ020-021-025-026-031-272100-
SOUTHWEST ARIZONA

CITY           SKY/WX    TMP DP  RH WIND       PRES   REMARKS
YUMA           MOSUNNY   80  23  12 NE9       30.10F
$$

CAZ031-033-041-043-047-048-061-272100-
SOUTHERN CALIFORNIA

CITY           SKY/WX    TMP DP  RH WIND       PRES   REMARKS
DOWNTOWN L.A.  SUNNY     85  20   9 CALM      30.05F
L.A. AIRPORT   PTSUNNY   82  29  14 W7        30.06F
SAN DIEGO      MOSUNNY   84  21  10 NW7       30.05F
BURBANK        SUNNY     85  24  11 CALM      30.08F
ONTARIO        PTSUNNY   86  18   8 VRB3      30.08F
RIVERSIDE      SUNNY     86  18   8 CALM      30.08F
PALM SPRINGS   SUNNY     81  17   9 CALM      30.13F
EL CENTRO NAS  SUNNY     79  27  14 NE5       30.10F
IMPERIAL       SUNNY     78  33  19 CALM      30.10F
BLYTHE         SUNNY     74  19  12 CALM      30.14F
NEEDLES        SUNNY     73  21  14 NE6       30.18F
$$

NVZ020-UTZ003-272100-
SOUTHERN NEVADA-UTAH

CITY           SKY/WX    TMP DP  RH WIND       PRES   REMARKS
LAS VEGAS      CLOUDY    63  20  19 S6        30.21F
SALT LAKE CITY CLOUDY    57  23  26 SE7       30.24F
$$

NMZ009-TXZ055-272100-
NEW MEXICO-WEST TEXAS

CITY           SKY/WX    TMP DP  RH WIND       PRES   REMARKS
ALBUQUERQUE    MOSUNNY   55  23  28 CALM      30.39F
EL PASO        SUNNY     63  21  20 CALM      30.33F
$$


........................KEY........................
SKY/WX - SKY CONDITION/WEATHER
TMP    - TEMPERATURE IN FAHRENHEIT
DP     - DEW POINT IN FAHRENHEIT
RH     - RELATIVE HUMIDITY IN PERCENT
WIND   - DIRECTION AND SPEED IN MILES PER HOUR (MPH)
VRB    - VARIABLE WIND DIRECTION
PRES   - MEAN SEA LEVEL PRESSURE IN INCHES OF MERCURY
         F - FALLING PRESSURE   R - RISING PRESSURE
         S - STEADY PRESSURE
VSB    - VISIBILITY IN MILES
HX     - HEAT INDEX IN FAHRENHEIT
WCI    - WIND CHILL INDEX IN FAHRENHEIT
TC     - TEMPERATURE IN CELSIUS WHICH IS ALSO KNOWN AS
         TEMPERATURE IN CENTIGRADE
AFB    - AIR FORCE BASE
         LUKE AFB IS LUKE AIR FORCE BASE
         DAVIS-MONTHAN IS DAVIS-MONTHAN AIR FORCE BASE
NAS    - NAVAL AIR STATION
         EL CENTRO NAS IS EL CENTRO NAVAL AIR STATION
N/A    - NOT AVAILABLE



USA.gov is the U.S. government's official web portal to all federal, state and local government web resources and services.